Falls City, NE

8:01 AM CST on November 24, 2017 (GMT -0600)
Brenner

Weather History for KFNB - July, 2013

Change the Weather History Date:

Saturday, July 13, 2013

  Actual Average Record
Temperature  
Mean Temperature 78 °F -  
Max Temperature 87 °F 91 °F 104 °F (1954)
Min Temperature 70 °F 67 °F 50 °F (1975)
Cooling Degree Days 13    
Growing Degree Days 28 (Base 50)    
Moisture  
Dew Point 66 °F    
Average Humidity 68    
Maximum Humidity 74    
Minimum Humidity 60    
Precipitation  
Precipitation 0.00 in - - ()
Sea Level Pressure  
Sea Level Pressure 29.96 in    
Wind  
Wind Speed 7 mph (SE)    
Max Wind Speed 12 mph    
Max Gust Speed -    
Visibility 10 miles    
Events      
Averages and records for this station are not official NWS values.
T = Trace of Precipitation, MM = Missing Value Source: NWS Daily Summary

Daily Weather History Graph

Daily Weather History Graph

Search for Another Location

Airport or City:

Trip Planner

Search our weather history database for the weather conditions in past years. The results will help you decide how hot, cold, wet, or windy it might be!

Date:

Astronomy

Jul. 13, 2013 Rise Set
Actual Time 6:04 AM CDT 8:51 PM CDT
Civil Twilight 5:32 AM CDT 9:23 PM CDT
Nautical Twilight 4:52 AM CDT 10:03 PM CDT
Astronomical Twilight 4:06 AM CDT 10:49 PM CDT
Moon 11:21 AM CDT (7/13) 11:32 PM CDT (7/13)
Length of Visible Light 15h 50m
Length of Day
14h 46m
Waxing Crescent, 26% of the Moon is Illuminated
Jul 13
Waxing Crescent
Jul 15
First Quarter
Jul 22
Full
Jul 29
Last Quarter
Aug 6
New

Hourly Weather History & Observations

Time (CDT) Temp. Heat Index Dew Point Humidity Pressure Visibility Wind Dir Wind Speed Gust Speed Precip Events Conditions
12:53 AM 73.0 °F - 62.1 °F 68% 29.95 in 10.0 mi SSE 6.9 mph - N/A   Clear
1:53 AM 73.0 °F - 62.1 °F 68% 29.96 in 10.0 mi SE 5.8 mph - N/A   Clear
2:53 AM 72.0 °F - 61.0 °F 68% 29.96 in 10.0 mi SE 4.6 mph - N/A   Clear
3:53 AM 71.1 °F - 61.0 °F 70% 29.96 in 10.0 mi SE 5.8 mph - N/A   Clear
4:53 AM 70.0 °F - 61.0 °F 73% 29.96 in 10.0 mi SSE 8.1 mph - N/A   Clear
5:53 AM 71.1 °F - 60.1 °F 68% 29.96 in 10.0 mi SE 4.6 mph - N/A   Clear
6:53 AM 71.1 °F - 61.0 °F 70% 29.96 in 10.0 mi SE 4.6 mph - N/A   Clear
7:53 AM 72.0 °F - 62.1 °F 71% 29.99 in 10.0 mi Calm Calm - N/A   Partly Cloudy
8:53 AM 73.9 °F - 62.1 °F 66% 29.98 in 10.0 mi SSE 5.8 mph - N/A   Partly Cloudy
9:53 AM 75.0 °F - 63.0 °F 66% 29.99 in 10.0 mi ESE 5.8 mph - N/A   Overcast
10:53 AM 78.1 °F - 63.0 °F 60% 29.98 in 10.0 mi SSE 10.4 mph - N/A   Clear
11:53 AM 79.0 °F - 66.9 °F 66% 29.99 in 10.0 mi NE 3.5 mph - N/A   Clear
12:53 PM 81.0 °F 84.1 °F 69.1 °F 67% 29.98 in 10.0 mi SE 6.9 mph - N/A   Scattered Clouds
1:53 PM 81.0 °F 84.1 °F 69.1 °F 67% 29.96 in 10.0 mi SE 11.5 mph - N/A   Scattered Clouds
2:53 PM 80.1 °F 83.6 °F 71.1 °F 74% 29.95 in 10.0 mi ESE 5.8 mph - N/A   Mostly Cloudy
3:53 PM 82.9 °F 88.0 °F 72.0 °F 69% 29.94 in 10.0 mi SE 8.1 mph - N/A   Partly Cloudy
4:53 PM 84.9 °F 91.4 °F 73.0 °F 67% 29.93 in 10.0 mi SE 9.2 mph - N/A   Clear
5:53 PM 86.0 °F 92.2 °F 72.0 °F 63% 29.92 in 10.0 mi SE 10.4 mph - N/A   Clear
6:53 PM 82.9 °F 87.5 °F 71.1 °F 67% 29.91 in 10.0 mi SE 8.1 mph - N/A   Clear
7:53 PM 81.0 °F 84.9 °F 71.1 °F 72% 29.92 in 10.0 mi ESE 9.2 mph - N/A   Clear
8:53 PM 79.0 °F - 69.1 °F 72% 29.93 in 10.0 mi ESE 9.2 mph - N/A   Clear
9:53 PM 78.1 °F - 68.0 °F 71% 29.94 in 10.0 mi SE 9.2 mph - N/A   Scattered Clouds
10:53 PM 77.0 °F - 66.9 °F 71% 29.98 in 10.0 mi ESE 8.1 mph - N/A   Scattered Clouds
11:53 PM 75.9 °F - 64.9 °F 69% 29.98 in 10.0 mi SE 8.1 mph - N/A   Scattered Clouds